Regional Weather Roundup
Issued by NWS

Home | Current Version | Previous Version | Text Only | Print | Product List | Glossary On
Versions: 1 2 3 4 5 6 7 8 9 10 11 12 13 14 15 16 17 18 19 20 21 22 23 24 25 26 27 28 29 30 31 32 33 34 35 36 37 38 39 40 41 42 43 44 45 46 47 48 49 50
000
ASUS43 KMPX 291110
RWRMN
WEATHER ROUNDUP FOR MINNESOTA
NATIONAL WEATHER SERVICE TWIN CITIES/CHANHASSEN MN
600 AM CDT SAT AUG 29 2015


NOTE: "FAIR" INDICATES FEW OR NO CLOUDS BELOW 12,000 FEET WITH NO
SIGNIFICANT WEATHER AND/OR OBSTRUCTIONS TO VISIBILITY. N/A MEANS
CURRENT SKY AND/OR WEATHER CONDITIONS ARE NOT AVAILABLE.

MNZ060>063-068>070-291200-
   Twin Cities Metro

CITY           SKY/WX    TMP DP  RH WIND       PRES   REMARKS
TWIN CITIES    PTCLDY    57  54  89 E7        30.05R
ST PAUL        CLEAR     56  54  93 CALM      30.05R
CRYSTAL        CLEAR     55  53  93 E3        30.03R FOG
BLAINE         PTCLDY    55  55 100 E3        30.05R FOG
LAKEVILLE      CLOUDY    54  54 100 CALM      30.03F FOG
EDEN PRAIRIE   MOCLDY    57  54  89 E5        30.03S
SOUTH ST PAUL  CLEAR     56  54  92 CALM      30.05R
LAKE ELMO      FAIR      54  52  94 CALM      30.06R
$$
MNZ001>005-007-008-013>017-022>024-027-028-291200-
   Northwest Minnesota

CITY           SKY/WX    TMP DP  RH WIND       PRES   REMARKS
BEMIDJI        CLEAR     61  59  94 S5        29.97S
HALLOCK        FOG       64  64 100 S8        29.89S VSB 1/4
ROSEAU         HAZE      61  54  77 S3        29.93R VSB 1/4
WARROAD        FOG       63  57  82 CALM      29.93S VSB 1/2
THIEF RVR FALL CLEAR    N/A N/A N/A S8        29.92S
CROOKSTON      CLEAR     63  61  94 S9        29.92S
FOSSTON        CLEAR     61  57  88 S9        29.96R
DETROIT LAKES  CLEAR     61  59  94 S7        30.00R
MOORHEAD       CLEAR     61  59  94 S10       29.95S
PARK RAPIDS    PTCLDY    60  57  89 S6        29.99S
MAHNOMEN       FAIR      62  59  92 S9        29.96R
$$
MNZ006-009>011-018-025>026-291200-
   North Central Minnesota

CITY           SKY/WX    TMP DP  RH WIND       PRES   REMARKS
BAUDETTE       FOG       61  60  97 S3        29.93S VSB 1/2
FLAG ISLAND    CLEAR     64  63  94 CALM      29.91S
INTL FALLS     CLOUDY    66  63  90 VRB3      29.95R
WASKISH        CLEAR     63  61  94 CALM      29.95S
BIG FORK       CLOUDY    64  61  88 S7        29.99R
LONGVILLE      MOCLDY    59  57  94 S6        30.00S
GRAND RAPIDS     N/A     61  55  82 S8        30.02S
CRANE LAKE     CLOUDY    61  59  94 S5        29.99S
ORR            CLOUDY    64  57  77 S6        29.96F
COOK           CLOUDY    63  61  94 S5        30.00F
WALKER         FAIR      61  59  92 S6        29.99R
$$
MNZ012-019>021-037-291200-
   Northeast Minnesota

CITY           SKY/WX    TMP DP  RH WIND       PRES   REMARKS
DULUTH         CLOUDY    59  56  89 SW9       30.03F
ELY            MOCLDY    57  55  94 SW3       30.01R
HIBBING        CLOUDY    63  58  83 VRB6      30.02S
EVELETH        CLOUDY    61  59  94 SW7       30.03S
DULUTH HARBOR  CLOUDY    59  57  94 SW8       30.03F
TWO HARBORS    CLOUDY    61  55  82 W8        30.01F
SILVER BAY     CLOUDY    59  57  94 SW6       29.99S
GRAND MARAIS     N/A     57  56  96 VRB6      29.96R
G MARAIS ARPRT CLOUDY    57  54  88 W8        29.99S
$$
MNZ029>031-032-039>041-046>048-054>057-064-291200-
   West Central Minnesota

CITY           SKY/WX    TMP DP  RH WIND       PRES   REMARKS
FERGUS FALLS   CLEAR     59  59 100 S9        30.00R
WHEATON        CLEAR     55  55 100 SE7       30.01R
MORRIS         CLEAR     55  54  94 S6        30.01R
ALEXANDRIA     CLEAR     58  56  93 S7        30.03R
ELBOW LAKE     FAIR      57  56  95 S9        30.00S
WADENA         PTCLDY    55  55 100 SE3       30.00S
GLENWOOD       CLEAR     54  54 100 S5        30.03S FOG
APPLETON       CLEAR     57  54  88 SE3       30.02R
BENSON         CLEAR     54  52  94 CALM      30.02S
ORTONVILLE     CLEAR     55  54  94 SE3       30.01R
MADISON        CLEAR     54  52  94 SE3       30.01R
WILLMAR        FAIR      52  52 100 SE3       30.04S FOG
$$
MNZ033>034-036-042>043-049>051-058-059-291200-
   Central Minnesota

CITY           SKY/WX    TMP DP  RH WIND       PRES   REMARKS
ST CLOUD       PTCLDY    54  54 100 CALM      30.05R FOG
SAUK CENTRE    FAIR      53  53  99 CALM      30.04R FOG
PAYNESVILLE    CLEAR     53  52  97 CALM      30.04S FOG
AITKIN         MOCLDY    61  54  77 CALM      30.02S
PINE RIVER     CLOUDY    59  59 100 S5        30.05R
BRAINERD       MOCLDY    57  55  93 S5        30.04R
STAPLES        CLOUDY    57  55  94 S6        30.02R
LONG PRAIRIE   CLOUDY    54  54 100 SE5       30.03S
LITTLE FALLS   CLOUDY    54  54 100 CALM      30.04R
LITCHFIELD     CLEAR     55  55 100 SE5       30.05R
BUFFALO        PTCLDY    53  50  90 CALM      30.05R
MAPLE LAKE     FOG       55  54  98 CALM      30.05R VSB 1
$$
MNZ037-044-045-052-053-291200-
   East Central Minnesota

CITY           SKY/WX    TMP DP  RH WIND       PRES   REMARKS
PRINCETON      PTCLDY    55  55 100 E3        30.05R FOG
MORA             N/A     52  52 100 CALM      30.07S FOG
CAMBRIDGE      MOCLDY    57  50  77 CALM      30.04R
RUSH CITY      PTCLDY    54  53  96 CALM      30.06S
MOOSE LAKE     CLOUDY    57  55  94 CALM      30.04F
HINCKLEY       FAIR      54  54 100 CALM      30.07R FOG
CLOQUET        CLOUDY    59  55  88 S3        30.04F
MCGREGOR       CLOUDY    57  55  94 SE6       30.05R
$$
MNZ071>073-080-081-089-090-097-098-291200-
   Southwest Minnesota

CITY           SKY/WX    TMP DP  RH WIND       PRES   REMARKS
MONTEVIDEO     CLEAR     54  54 100 CALM      30.04R
GRANITE FALLS  MOCLDY    51  50  99 CALM      30.04S
CANBY          CLEAR     53  51  93 CALM      30.02S
MARSHALL       CLEAR     54  48  82 S5        30.03R
REDWOOD FALLS  FOG       50  50 100 S3        30.04R VSB 1/4
OLIVIA         CLEAR     50  48  93 SE6       30.03S FOG
PIPESTONE      FOG       50  48  93 CALM      30.04S VSB 1
WINDOM         FOG       55  55 100 CALM      30.05R VSB 1
WORTHINGTON    CLOUDY    52  48  87 CALM      30.05S VSB 1/4
JACKSON        FOG       57  55  94 NE3       30.05R VSB 1/2
TRACY          CLEAR     56  55  97 S6        30.04S
SLAYTON        FOG       48  48 100 CALM      30.05S VSB 3/4
$$
MNZ065>067-074>077-082>085-091>093-291200-
   South Central Minnesota

CITY           SKY/WX    TMP DP  RH WIND       PRES   REMARKS
MANKATO        CLOUDY    57  54  88 E5        30.03S VSB 1/4
NEW ULM        CLOUDY    55  55 100 CALM      30.03F FOG
ST JAMES       FOG       57  57 100 CALM      30.05R VSB 1
FAIRMONT       CLOUDY    55  52  88 N5        30.03R VSB 1/2
GLENCOE        CLOUDY    53  53 100 CALM      30.04R FOG
FARIBAULT      CLOUDY    57  55  94 CALM      30.04S FOG
OWATONNA       CLOUDY    57  55  94 CALM      30.03S FOG
WASECA         FOG       55  55 100 MISG      30.04S VSB 1/2
ALBERT LEA     FOG       57  57 100 NE5       30.03R VSB 1/4
$$
MNZ078>079-086>088-094>096-291200-
   Southeast Minnesota

CITY           SKY/WX    TMP DP  RH WIND       PRES   REMARKS
ROCHESTER      FOG       58  57  97 NE6       30.02F VSB 1/4
RED WING       CLOUDY    57  55  94 E3        30.03R
STANTON        CLOUDY    57  55  94 CALM      30.02S FOG
DODGE CENTER   FOG       55  55 100 CALM      30.02S VSB 1/4
WINONA         CLOUDY    59  57  94 NE3       30.02S
AUSTIN         FOG       61  57  88 NE3       30.02R VSB 1
PRESTON        CLOUDY    58  57  96 NE6       30.02R FOG
$$
ABBREVIATIONS USED IN REMARKS
   TC - TEMPERATURES IN CELSIUS
  WCI - WIND CHILL INDEX
   HX - HEAT INDEX
  VSB - VISIBILITY
$$



USA.gov is the U.S. government's official web portal to all federal, state and local government web resources and services.